USY629 LOWW-EDDP

Flight info

Callsign USY629
Flight time 0h 51m
Altitude 30000
Route LANUX DCT VLM DCT BEFRE DCT IVQOQ T951 YAWOY YAWOY1V
Aircraft A343/H-SDE2E3FGHIJ4J5M1RWXY/LB1D1

Departure

Time 2026-04-23 19:01
Airport Vienna International Airport (LOWW)

Arrival

Time 2026-04-23 19:52
Airport Leipzig/Halle Airport (EDDP)
Time Latitude Longitude Altitude Speed Heading
2026-04-23 18:29 48.12152 16.54944 606 ft 0 kts 25°
2026-04-23 18:49 48.12150 16.54942 606 ft 3 kts 25°
2026-04-23 18:50 48.12135 16.54930 624 ft 4 kts 32°
2026-04-23 18:50 48.12107 16.54897 624 ft 4 kts 51°
2026-04-23 18:50 48.12093 16.54863 625 ft 4 kts 71°
2026-04-23 18:50 48.12089 16.54825 623 ft 4 kts 106°
2026-04-23 18:51 48.12091 16.54815 623 ft 0 kts 116°
2026-04-23 18:54 48.12090 16.54820 620 ft 4 kts 116°
2026-04-23 18:55 48.12059 16.54917 623 ft 15 kts 115°
2026-04-23 18:55 48.12015 16.55060 622 ft 16 kts 114°
2026-04-23 18:55 48.11955 16.55182 623 ft 8 kts 160°
2026-04-23 18:55 48.11909 16.55191 623 ft 6 kts 168°
2026-04-23 18:56 48.11889 16.55208 627 ft 4 kts 143°
2026-04-23 18:56 48.11864 16.55268 627 ft 7 kts 116°
2026-04-23 18:56 48.11837 16.55351 624 ft 13 kts 116°
2026-04-23 18:56 48.11787 16.55503 622 ft 17 kts 116°
2026-04-23 18:57 48.11740 16.55649 626 ft 15 kts 116°
2026-04-23 18:57 48.11694 16.55789 625 ft 15 kts 116°
2026-04-23 18:57 48.11653 16.55918 634 ft 13 kts 116°
2026-04-23 18:57 48.11606 16.56061 626 ft 18 kts 116°
2026-04-23 18:58 48.11538 16.56268 633 ft 24 kts 116°
2026-04-23 18:58 48.11462 16.56503 627 ft 25 kts 115°
2026-04-23 18:58 48.11392 16.56726 627 ft 21 kts 115°
2026-04-23 18:58 48.11336 16.56907 633 ft 18 kts 115°
2026-04-23 18:59 48.11279 16.57065 630 ft 18 kts 117°
2026-04-23 18:59 48.11225 16.57230 635 ft 18 kts 116°
2026-04-23 18:59 48.11170 16.57406 627 ft 20 kts 114°
2026-04-23 18:59 48.11109 16.57589 631 ft 17 kts 119°
2026-04-23 19:00 48.11036 16.57634 629 ft 9 kts 191°
2026-04-23 19:00 48.10977 16.57598 636 ft 10 kts 207°
2026-04-23 19:00 48.10935 16.57515 632 ft 11 kts 260°
2026-04-23 19:00 48.10957 16.57403 637 ft 11 kts 296°
2026-04-23 19:01 48.11047 16.57123 637 ft 64 kts 296°
2026-04-23 19:01 48.11349 16.56199 629 ft 132 kts 296°
2026-04-23 19:01 48.11820 16.54702 738 ft 179 kts 294°
2026-04-23 19:01 48.12226 16.52861 1370 ft 197 kts 276°
2026-04-23 19:02 48.12144 16.51454 1866 ft 216 kts 268°
2026-04-23 19:02 48.11770 16.48308 2767 ft 239 kts 269°
2026-04-23 19:02 48.11755 16.45789 3501 ft 242 kts 283°
2026-04-23 19:02 48.11971 16.43317 3936 ft 242 kts 285°
2026-04-23 19:03 48.12230 16.40837 4516 ft 242 kts 285°
2026-04-23 19:03 48.12492 16.38356 5518 ft 240 kts 285°
2026-04-23 19:03 48.12752 16.35889 6513 ft 241 kts 285°
2026-04-23 19:03 48.13018 16.33386 7321 ft 247 kts 285°
2026-04-23 19:04 48.13294 16.30799 8057 ft 256 kts 284°
2026-04-23 19:04 48.13575 16.28136 8791 ft 263 kts 284°
2026-04-23 19:04 48.13862 16.25393 9528 ft 270 kts 285°
2026-04-23 19:04 48.14310 16.22656 10176 ft 272 kts 298°
2026-04-23 19:05 48.15334 16.20274 10573 ft 279 kts 319°
2026-04-23 19:05 48.16967 16.18592 10828 ft 294 kts 334°
2026-04-23 19:05 48.18856 16.17202 11095 ft 312 kts 336°
2026-04-23 19:05 48.20870 16.15760 11387 ft 329 kts 336°
2026-04-23 19:06 48.22977 16.14231 11807 ft 341 kts 335°
2026-04-23 19:06 48.25130 16.12651 12405 ft 348 kts 335°
2026-04-23 19:06 48.27319 16.11035 13037 ft 354 kts 335°
2026-04-23 19:06 48.29544 16.09388 13707 ft 359 kts 336°
2026-04-23 19:07 48.31794 16.07719 14298 ft 363 kts 336°
2026-04-23 19:07 48.34072 16.06026 14945 ft 366 kts 336°
2026-04-23 19:07 48.36370 16.04315 15544 ft 371 kts 336°
2026-04-23 19:07 48.38697 16.02581 16126 ft 375 kts 336°
2026-04-23 19:08 48.41048 16.00827 16715 ft 380 kts 336°
2026-04-23 19:08 48.43427 15.99051 17352 ft 383 kts 336°
2026-04-23 19:08 48.45821 15.97260 17952 ft 387 kts 336°
2026-04-23 19:08 48.48247 15.95445 18529 ft 391 kts 336°
2026-04-23 19:09 48.50692 15.93614 19047 ft 395 kts 337°
2026-04-23 19:09 48.53163 15.91760 19586 ft 398 kts 337°
2026-04-23 19:09 48.55648 15.89894 20110 ft 401 kts 337°
2026-04-23 19:09 48.58155 15.87996 20628 ft 405 kts 336°
2026-04-23 19:10 48.60626 15.85915 21146 ft 409 kts 334°
2026-04-23 19:10 48.63102 15.83751 21651 ft 412 kts 334°
2026-04-23 19:10 48.65596 15.81582 22135 ft 416 kts 335°
2026-04-23 19:10 48.68083 15.79431 22629 ft 418 kts 335°
2026-04-23 19:11 48.70648 15.77222 23129 ft 421 kts 335°
2026-04-23 19:11 48.73199 15.75027 23588 ft 424 kts 335°
2026-04-23 19:11 48.75741 15.72840 23978 ft 427 kts 335°
2026-04-23 19:11 48.78335 15.70607 24370 ft 429 kts 335°
2026-04-23 19:12 48.80091 15.69094 24639 ft 431 kts 335°
2026-04-23 19:12 48.83550 15.66112 25143 ft 434 kts 335°
2026-04-23 19:12 48.86178 15.63843 25540 ft 435 kts 335°
2026-04-23 19:12 48.88837 15.61641 25916 ft 435 kts 339°
2026-04-23 19:13 48.91576 15.59663 26283 ft 436 kts 340°
2026-04-23 19:13 48.94310 15.57806 26743 ft 435 kts 341°
2026-04-23 19:13 48.96297 15.56492 27021 ft 436 kts 341°
2026-04-23 19:13 48.99095 15.54663 27313 ft 438 kts 341°
2026-04-23 19:14 49.01906 15.52829 27570 ft 442 kts 341°
2026-04-23 19:14 49.04737 15.50972 27904 ft 444 kts 341°
2026-04-23 19:14 49.07578 15.49096 28253 ft 446 kts 341°
2026-04-23 19:14 49.10429 15.47203 28576 ft 448 kts 341°
2026-04-23 19:15 49.13286 15.45298 28907 ft 450 kts 341°
2026-04-23 19:15 49.16160 15.43377 29215 ft 451 kts 341°
2026-04-23 19:15 49.19036 15.41450 29629 ft 450 kts 341°
2026-04-23 19:15 49.21898 15.39529 30049 ft 450 kts 341°
2026-04-23 19:16 49.24772 15.37600 30149 ft 451 kts 341°
2026-04-23 19:16 49.30468 15.33766 30156 ft 445 kts 341°
2026-04-23 19:17 49.38975 15.28032 30157 ft 447 kts 341°
2026-04-23 19:17 49.44640 15.24205 30167 ft 447 kts 341°
2026-04-23 19:18 49.50324 15.20349 30167 ft 446 kts 341°
2026-04-23 19:18 49.56003 15.16489 30153 ft 446 kts 341°
2026-04-23 19:19 49.64518 15.10682 30167 ft 446 kts 341°
2026-04-23 19:20 49.73199 15.05913 30162 ft 437 kts 351°
2026-04-23 19:20 49.79161 15.04041 30166 ft 438 kts 353°
2026-04-23 19:21 49.88137 15.01456 30171 ft 440 kts 353°
2026-04-23 19:22 49.94143 14.99715 30164 ft 438 kts 352°
2026-04-23 19:22 50.03116 14.97081 30165 ft 437 kts 352°
2026-04-23 19:23 50.09094 14.95319 30170 ft 437 kts 352°
2026-04-23 19:24 50.18059 14.92668 30173 ft 437 kts 352°
2026-04-23 19:24 50.27029 14.90005 30168 ft 437 kts 352°
2026-04-23 19:25 50.39010 14.86435 30174 ft 440 kts 352°
2026-04-23 19:26 50.47990 14.83738 30164 ft 437 kts 352°
2026-04-23 19:27 50.62911 14.79248 30171 ft 437 kts 352°
2026-04-23 19:28 50.74776 14.75660 30167 ft 432 kts 352°
2026-04-23 19:29 50.83613 14.72781 29601 ft 440 kts 346°
2026-04-23 19:30 50.89278 14.68923 29376 ft 448 kts 334°
2026-04-23 19:30 50.91904 14.66235 29171 ft 452 kts 327°
2026-04-23 19:30 50.96282 14.58971 27775 ft 462 kts 308°
2026-04-23 19:31 50.97822 14.54472 27203 ft 466 kts 298°
2026-04-23 19:31 50.98942 14.49578 26648 ft 466 kts 292°
2026-04-23 19:31 50.99810 14.44697 26091 ft 464 kts 290°
2026-04-23 19:31 51.00582 14.39746 25572 ft 461 kts 289°
2026-04-23 19:32 51.01324 14.34814 25039 ft 457 kts 289°
2026-04-23 19:32 51.02062 14.29940 24521 ft 452 kts 289°
2026-04-23 19:32 51.02812 14.25121 24003 ft 448 kts 289°
2026-04-23 19:32 51.03574 14.20343 23453 ft 444 kts 289°
2026-04-23 19:33 51.04340 14.15611 22863 ft 440 kts 289°
2026-04-23 19:33 51.05104 14.10931 22269 ft 436 kts 289°
2026-04-23 19:33 51.06617 14.01667 21156 ft 430 kts 289°
2026-04-23 19:34 51.07364 13.97081 20611 ft 426 kts 289°
2026-04-23 19:34 51.08101 13.92539 20070 ft 423 kts 289°
2026-04-23 19:34 51.09313 13.85054 19203 ft 418 kts 289°
2026-04-23 19:35 51.10036 13.80590 18685 ft 415 kts 289°
2026-04-23 19:35 51.10749 13.76167 18132 ft 412 kts 288°
2026-04-23 19:35 51.11306 13.71706 17650 ft 410 kts 282°
2026-04-23 19:35 51.11675 13.67248 17253 ft 404 kts 281°
2026-04-23 19:36 51.12009 13.62818 16860 ft 402 kts 281°
2026-04-23 19:36 51.12327 13.58408 16483 ft 401 kts 280°
2026-04-23 19:36 51.12633 13.54004 16106 ft 399 kts 280°
2026-04-23 19:36 51.12930 13.49624 15737 ft 396 kts 280°
2026-04-23 19:37 51.13221 13.45277 15375 ft 394 kts 280°
2026-04-23 19:37 51.13508 13.40945 15014 ft 392 kts 280°
2026-04-23 19:37 51.13791 13.36647 14644 ft 390 kts 279°
2026-04-23 19:37 51.14071 13.32360 14296 ft 388 kts 279°
2026-04-23 19:38 51.14348 13.28105 13942 ft 386 kts 279°
2026-04-23 19:38 51.14621 13.23862 13554 ft 384 kts 279°
2026-04-23 19:38 51.14891 13.19653 13157 ft 381 kts 279°
2026-04-23 19:38 51.15157 13.15459 12776 ft 379 kts 279°
2026-04-23 19:39 51.15420 13.11302 12399 ft 376 kts 279°
2026-04-23 19:39 51.15681 13.07161 12029 ft 374 kts 279°
2026-04-23 19:39 51.15938 13.03046 11650 ft 372 kts 279°
2026-04-23 19:39 51.16192 12.98964 11288 ft 370 kts 279°
2026-04-23 19:40 51.16441 12.94915 10929 ft 364 kts 279°
2026-04-23 19:40 51.16684 12.90947 10558 ft 357 kts 279°
2026-04-23 19:40 51.16923 12.87045 10292 ft 349 kts 279°
2026-04-23 19:40 51.17114 12.83269 10237 ft 336 kts 276°
2026-04-23 19:41 51.17072 12.79627 10204 ft 320 kts 271°
2026-04-23 19:41 51.16932 12.76184 10001 ft 301 kts 271°
2026-04-23 19:41 51.16789 12.72976 9756 ft 282 kts 271°
2026-04-23 19:41 51.16657 12.69826 9583 ft 288 kts 271°
2026-04-23 19:42 51.16702 12.66676 9507 ft 281 kts 283°
2026-04-23 19:42 51.17272 12.63766 9190 ft 272 kts 302°
2026-04-23 19:42 51.18423 12.61492 8837 ft 266 kts 324°
2026-04-23 19:42 51.20064 12.60165 8489 ft 261 kts 348°
2026-04-23 19:43 51.21851 12.60381 8145 ft 262 kts 18°
2026-04-23 19:43 51.23514 12.61486 7826 ft 263 kts 25°
2026-04-23 19:43 51.25093 12.63046 7495 ft 265 kts 32°
2026-04-23 19:43 51.26585 12.64698 7179 ft 263 kts 28°
2026-04-23 19:44 51.28169 12.66138 6870 ft 262 kts 26°
2026-04-23 19:44 51.29718 12.67683 6548 ft 263 kts 34°
2026-04-23 19:44 51.31018 12.69756 6177 ft 268 kts 51°
2026-04-23 19:44 51.31845 12.72450 5831 ft 272 kts 67°
2026-04-23 19:45 51.32632 12.75146 5560 ft 263 kts 49°
2026-04-23 19:45 51.33992 12.76959 5321 ft 252 kts 22°
2026-04-23 19:45 51.35671 12.77523 5013 ft 247 kts 358°
2026-04-23 19:45 51.37305 12.76810 4676 ft 245 kts 329°
2026-04-23 19:46 51.38486 12.74915 4331 ft 240 kts 303°
2026-04-23 19:46 51.39220 12.72546 4050 ft 236 kts 296°
2026-04-23 19:46 51.39843 12.70167 3998 ft 226 kts 295°
2026-04-23 19:46 51.40425 12.67893 4000 ft 219 kts 295°
2026-04-23 19:47 51.41002 12.65630 3998 ft 220 kts 295°
2026-04-23 19:47 51.41580 12.63359 3996 ft 220 kts 295°
2026-04-23 19:47 51.42160 12.61084 3997 ft 220 kts 295°
2026-04-23 19:47 51.42672 12.58776 3995 ft 222 kts 285°
2026-04-23 19:48 51.42832 12.56311 4003 ft 224 kts 273°
2026-04-23 19:48 51.42743 12.53867 3966 ft 215 kts 267°
2026-04-23 19:48 51.42598 12.51532 3759 ft 212 kts 269°
2026-04-23 19:48 51.42491 12.49149 3447 ft 210 kts 270°
2026-04-23 19:49 51.42389 12.46878 3140 ft 202 kts 269°
2026-04-23 19:49 51.42284 12.44716 2901 ft 189 kts 270°
2026-04-23 19:49 51.42188 12.42653 2617 ft 179 kts 270°
2026-04-23 19:49 51.42100 12.40743 2377 ft 170 kts 271°
2026-04-23 19:50 51.42014 12.38881 2151 ft 162 kts 271°
2026-04-23 19:50 51.41933 12.37108 1923 ft 162 kts 271°
2026-04-23 19:50 51.41851 12.35372 1724 ft 149 kts 271°
2026-04-23 19:50 51.41776 12.33785 1516 ft 137 kts 271°
2026-04-23 19:51 51.41708 12.32298 1340 ft 132 kts 270°
2026-04-23 19:51 51.41642 12.30828 1154 ft 133 kts 269°
2026-04-23 19:51 51.41573 12.29346 984 ft 134 kts 268°
2026-04-23 19:51 51.41504 12.27860 800 ft 134 kts 267°
2026-04-23 19:52 51.41436 12.26380 632 ft 133 kts 266°
2026-04-23 19:52 51.41366 12.24912 489 ft 129 kts 266°
2026-04-23 19:52 51.41310 12.23656 472 ft 89 kts 265°
2026-04-23 19:52 51.41276 12.22951 466 ft 38 kts 264°
2026-04-23 19:53 51.41229 12.22695 462 ft 22 kts 242°
2026-04-23 19:53 51.41154 12.22533 461 ft 14 kts 206°
2026-04-23 19:53 51.41106 12.22547 461 ft 0 kts 136°
2026-04-23 19:53 51.41105 12.22547 461 ft 0 kts 139°
2026-04-23 19:54 51.41098 12.22544 461 ft 2 kts 186°
2026-04-23 19:54 51.41089 12.22504 460 ft 6 kts 256°
2026-04-23 19:54 51.41081 12.22426 459 ft 9 kts 262°
2026-04-23 19:54 51.41075 12.22304 460 ft 12 kts 267°
2026-04-23 19:55 51.41071 12.22211 460 ft 0 kts 263°
2026-04-23 19:55 51.41070 12.22202 460 ft 4 kts 263°
2026-04-23 19:55 51.41066 12.22093 460 ft 16 kts 267°
2026-04-23 19:55 51.41059 12.21927 461 ft 13 kts 265°
2026-04-23 19:56 51.41051 12.21788 462 ft 12 kts 265°
2026-04-23 19:56 51.41044 12.21644 461 ft 14 kts 265°
2026-04-23 19:56 51.41036 12.21467 457 ft 18 kts 266°
2026-04-23 19:56 51.41025 12.21262 455 ft 19 kts 265°
2026-04-23 19:57 51.41017 12.21034 446 ft 18 kts 255°
2026-04-23 19:57 51.40969 12.20992 429 ft 7 kts 190°
2026-04-23 19:57 51.40926 12.20938 446 ft 9 kts 234°
2026-04-23 19:57 51.40889 12.20840 428 ft 11 kts 245°
2026-04-23 19:58 51.40882 12.20700 433 ft 14 kts 270°
2026-04-23 19:58 51.40898 12.20544 434 ft 14 kts 285°
2026-04-23 19:58 51.40927 12.20389 432 ft 14 kts 274°
2026-04-23 19:58 51.40887 12.20335 433 ft 7 kts 177°
2026-04-23 19:59 51.40836 12.20343 429 ft 8 kts 176°
2026-04-23 19:59 51.40812 12.20345 438 ft 0 kts 177°